Regional Weather Roundup
Issued by NWS

Home | Current Version | Previous Version | Graphics & Text | Print | Product List | Glossary On
Versions: 1 2 3 4 5 6 7 8 9 10 11 12 13 14 15 16 17 18 19 20 21 22 23 24 25 26 27 28 29 30 31 32 33 34 35 36 37 38 39 40 41 42 43 44 45 46 47 48 49 50
000
ASUS43 KIND 300209
RWRIN

WEATHER ROUNDUP FOR INDIANA
NATIONAL WEATHER SERVICE INDIANAPOLIS IN
1000 PM EDT TUE JUL 29 2014

NOTE: "FAIR" INDICATES FEW OR NO CLOUDS BELOW 12,000 FEET WITH NO
SIGNIFICANT WEATHER AND/OR OBSTRUCTIONS TO VISIBILITY.

* - STATION DOES NOT REPORT WEATHER SUCH AS PRECIPITATION OR FOG.

+ - STATION NOT QUALITY CONTROLLED BY THE NATIONAL WEATHER SERVICE.
    USE DATA WITH CAUTION...ESPECIALLY DEWPOINT AND RELATIVE
    HUMIDITY OBSERVATIONS.

INZ001>003-010>013-019-020-300300-
NORTHWEST INDIANA

CITY           SKY/WX    TMP DP  RH WIND       PRES   REMARKS
GARY /AIRPORT/ MOCLDY    70  57  64 SW5       30.01S
KNOX *+        CLEAR     63  57  82 SW5       30.01R
LA PORTE +     MOCLDY    63  58  83 CALM      30.01S
MICHIGAN CITY+ MOCLDY    61  55  82 CALM      30.01R
MONTICELLO +   MOCLDY    63  61  94 CALM      30.02S
RENSSELAER +   PTCLDY    59  59 100 CALM      30.03S
VALPARAISO     PTCLDY    65  57  75 W7        30.02S

$$

LMZ046-743>745-300300-
SOUTHERN LAKE MICHIGAN

STATION/POSITION TIME  TEMP WIND        PRES
                       AIR  DIR/SP/G
                 (UTC) (F)  (DEG/KT/KT) (MB)
MICHIGAN CITY    0200   69  210/  3/  4   N/A

$$

INZ004-005-014>016-021>024-300300-
NORTH CENTRAL INDIANA

CITY           SKY/WX    TMP DP  RH WIND       PRES   REMARKS
GOSHEN         CLEAR     60  53  77 W6        30.01R
LOGANSPORT +   PTCLDY    61  57  88 SW5       30.03S
PERU/GRISSOM   PTCLDY    63  63 100 SW5       30.03R
ROCHESTER +    CLEAR     66  59  77 W3        30.02S
SOUTH BEND     CLEAR     64  55  72 SW3       30.01S
WARSAW +       CLEAR     61  54  77 CALM      30.01S

$$

INZ006>009-017-018-025>027-300300-
NORTHEAST INDIANA

CITY           SKY/WX    TMP DP  RH WIND       PRES   REMARKS
ANGOLA *+      CLEAR     61  52  72 CALM      30.00S
AUBURN +       CLEAR     61  57  88 CALM      30.01S
FORT WAYNE     PTCLDY    63  59  87 SW10      30.02R
HUNTINGTON +   CLEAR     63  59  87 W5        30.02R

$$

INZ028-029-035-036-043>045-051>053-300300-
WEST CENTRAL INDIANA

CITY           SKY/WX    TMP DP  RH WIND       PRES   REMARKS
GREENCASTLE +  CLEAR     64  57  77 CALM      30.06S
LAFAYETTE      RAIN      62  61  96 SW5       30.03F
TERRE HAUTE    CLEAR     65  57  75 SW5       30.06R

$$

INZ030>032-037>040-046>048-054>057-064-065-300300-
CENTRAL INDIANA

CITY           SKY/WX    TMP DP  RH WIND       PRES   REMARKS
CP ATTERBURY + RAIN      61  57  88 W7        30.08R
COLUMBUS       CLOUDY    63  59  88 NW7       30.07R
INDIANAPOLIS   MOCLDY    61  59  93 S6        30.04F
-EAGLE CREEK   PTCLDY    62  60  93 S3        30.04F
KOKOMO *+      MOCLDY    63  59  88 W10       30.04R
MARION +       PTCLDY    60  57  92 SW3       30.04S
MT COMFORT *+  PTCLDY    59 N/A N/A SW3       30.06R
SHELBYVILLE    CLOUDY    63  59  87 W5        30.05S
ZIONSVILLE +   LGT RAIN  62  58  87 S5        30.06R

$$

INZ033-034-041-042-049-050-058-059-300300-
EAST CENTRAL INDIANA

CITY           SKY/WX    TMP DP  RH WIND       PRES   REMARKS
MUNCIE         CLEAR     63  57  81 SW7       30.04S

$$

INZ060-061-067>069-081>083-085>088-300300-
SOUTHWEST INDIANA

CITY           SKY/WX    TMP DP  RH WIND       PRES   REMARKS
EVANSVILLE     CLEAR     70  58  65 CALM      30.07R
WASHINGTON +   CLEAR     63  61  94 CALM      30.06R

$$

INZ062-063-066-070>080-084-089>092-300300-
SOUTH CENTRAL AND SOUTHEAST INDIANA

CITY           SKY/WX    TMP DP  RH WIND       PRES   REMARKS
BLOOMINGTON    PTCLDY    63  60  90 CALM      30.06S

$$




USA.gov is the U.S. government's official web portal to all federal, state and local government web resources and services.